Aeroporto :
LOGIN :

Iscrizione | Disclaimer

   EN    FR    IT 

 










Sommario :    VFR   VFR Marginale   IFR   IFR Intensivo   IFR Molto Intensivo
Visibilità : 
Base nubi : 
>= 8 km
>= 3000ft
5 / 8 km
1000 / 3000 ft
1500m / 5 km
500 / 1000 ft
800 / 1500m
200 / 500 ft
< 800m
< 200 ft
Simboli :   Temporali  Nebbia  Neve Forte  Precipitazioni Forti  Vento > 20 kt
SIGMETs :   Varie  Temporali  Ghiacco  Turbolenza  Onda orograficha  Ceneri Vulcaniche






- Altitudine del aeroporto : 628 ft
- Codice IATA : CMR


LFGA - Colmar-Houssen

ULTIMO METAR :
  • 261200Z AUTO 23010KT 9999 BKN046 BKN052 22/14 Q1018

METARs OBSOLETI :
  • 261130Z AUTO 22010KT 180V250 9999 BKN046/// BKN160/// ///CB 23/15 Q1018
  • 261100Z AUTO 18011KT 150V210 9999 FEW048 SCT058 BKN140 21/16 Q1018
  • 261030Z AUTO 19011KT CAVOK 21/17 Q1018
  • 261000Z AUTO 18010KT CAVOK 21/17 Q1017
  • 260930Z AUTO 18015KT CAVOK 21/18 Q1018

TAF N/A



MetMap, La meteo Aeronautica in un colpo d'occhio ! - Copyright ORBIFLY Dicembre 2007 - Disclaimer

ORBIFLY MET'MAP TEAM :

Programmazione e sviluppo : Alexandra Zaïnal
Concezione : Baudouin d'Aumeries
Aiuto per la programmazione : Marc-Olivier Méhu
Supporto tecnico e logistico : Manuel Goepfert
Aiuto per la traduzione : Arnaldo La Scala

Contatto : metmap@orbifly.com




FONTI E CREDITI :

   NOAA